GW4199 Weather Reports


time (UTC)temp
F
wind
direction
speed
knots
gust
knots
rain 1hr
in
rain 24hr
in
rain mn
in
humidity
%
barometer
mb
20260503215005 65 216 9.6 12.2 0.00 0.00 0.00 59 1017.1
20260503214512 65 203 8.7 11.3 0.00 0.00 0.00 59 1017.1
20260503214005 64 179 8.7 13.9 0.00 0.00 0.00 63 1017.1
20260503213506 64 219 9.6 13.9 0.00 0.00 0.00 57 1017.1
20260503213023 65 219 8.7 12.2 0.00 0.00 0.00 61 1017.1
20260503212507 64 183 7.8 12.2 0.00 0.00 0.00 58 1017.2
20260503212007 64 206 9.6 13.0 0.00 0.00 0.00 59 1017.2
20260503211535 64 182 9.6 13.0 0.00 0.00 0.00 57 1017.2
20260503211007 64 185 8.7 12.2 0.00 0.00 0.00 62 1017.3
20260503210508 64 188 8.7 13.9 0.00 0.00 0.00 58 1017.4
20260503210024 64 175 10.4 13.9 0.00 0.00 0.00 56 1017.4
20260503205513 64 155 9.6 13.9 0.00 0.00 0.00 59 1017.5
20260503205004 64 161 10.4 13.9 0.00 0.00 0.00 60 1017.5
20260503204512 64 165 11.3 13.9 0.00 0.00 0.00 59 1017.5
20260503204005 64 141 9.6 13.0 0.00 0.00 0.00 60 1017.5
20260503203503 64 181 10.4 14.8 0.00 0.00 0.00 59 1017.5
20260503203019 64 165 10.4 14.8 0.00 0.00 0.00 58 1017.5
20260503202508 63 163 12.2 14.8 0.00 0.00 0.00 62 1017.5
20260503202008 64 184 9.6 13.0 0.00 0.00 0.00 59 1017.5
20260503201518 64 147 11.3 13.9 0.00 0.00 0.00 59 1017.6
20260503201006 64 150 11.3 13.9 0.00 0.00 0.00 59 1017.7
20260503200508 64 188 8.7 13.0 0.00 0.01 0.00 59 1017.7
20260503200023 63 157 9.6 13.0 0.00 0.01 0.00 60 1017.7
20260503195512 63 186 11.3 13.0 0.00 0.01 0.00 57 1017.8
20260503195009 64 191 9.6 13.0 0.00 0.01 0.00 60 1017.7
20260503194526 64 159 7.8 12.2 0.00 0.02 0.00 60 1017.8
20260503194008 64 180 8.7 13.0 0.00 0.02 0.00 60 1017.9
20260503193510 64 145 8.7 13.0 0.00 0.02 0.00 58 1018.0
20260503193030 64 197 7.8 12.2 0.00 0.03 0.00 59 1018.1
20260503192502 64 193 7.8 12.2 0.00 0.03 0.00 60 1018.2
20260503192005 63 172 9.6 12.2 0.00 0.04 0.00 58 1018.4
20260503191518 63 196 7.0 11.3 0.00 0.05 0.00 58 1018.5
20260503191007 63 186 8.7 12.2 0.00 0.06 0.00 57 1018.6
20260503190503 63 174 8.7 13.0 0.00 0.07 0.00 60 1018.7
20260503190004 62 135 9.6 13.0 0.00 0.07 0.00 60 1018.8
20260503185504 63 132 8.7 12.2 0.00 0.08 0.00 59 1018.8
20260503185003 63 105 7.8 11.3 0.00 0.08 0.00 60 1018.8
20260503184505 63 117 8.7 12.2 0.00 0.09 0.00 59 1018.8
20260503184003 63 150 8.7 13.9 0.00 0.09 0.00 57 1018.8
20260503183503 63 107 8.7 13.9 0.00 0.10 0.00 59 1018.9
20260503183010 63 150 10.4 13.9 0.00 0.10 0.00 59 1019.1
20260503182504 63 129 9.6 13.9 0.00 0.10 0.00 59 1019.2
20260503182008 63 150 8.7 13.9 0.00 0.10 0.00 59 1019.2
20260503181512 63 155 9.6 12.2 0.00 0.10 0.00 57 1019.2
20260503181009 63 142 7.0 12.2 0.00 0.10 0.00 56 1019.2
20260503180506 63 144 8.7 12.2 0.00 0.10 0.00 60 1019.3
20260503180016 62 125 8.7 12.2 0.00 0.10 0.00 58 1019.4
20260503175502 62 138 7.8 11.3 0.00 0.10 0.00 58 1019.3
20260503175003 63 110 8.7 11.3 0.00 0.10 0.00 59 1019.3
20260503174503 63 95 8.7 11.3 0.00 0.10 0.00 58 1019.2
20260503174003 62 100 7.8 11.3 0.00 0.11 0.00 59 1019.2
20260503173507 62 114 7.8 11.3 0.00 0.11 0.00 59 1019.3
20260503173015 62 124 7.0 10.4 0.00 0.12 0.00 60 1019.4
20260503172504 63 128 7.0 10.4 0.00 0.13 0.00 59 1019.5
20260503172003 62 119 6.1 11.3 0.00 0.15 0.00 59 1019.5
20260503171508 62 117 7.0 11.3 0.00 0.16 0.00 59 1019.5
20260503171003 63 136 7.0 12.2 0.00 0.18 0.00 59 1019.5
20260503170504 62 120 7.8 12.2 0.00 0.19 0.00 58 1019.6
20260503151003 61 11 6.1 10.4 0.00 0.30 0.00 65 1019.8
20260503150503 61 51 6.1 11.3 0.00 0.31 0.00 65 1019.8
20260503131006 58 20 7.8 11.3 0.00 0.84 0.00 84 1019.2
20260503130507 58 28 7.8 11.3 0.00 0.84 0.00 85 1019.2
20260503110509 52 35 3.5 7.0 0.00 0.99 0.00 91 1018.0
20260503090510 52 13 5.2 7.8 0.00 1.19 0.00 92 1016.5
20260503081541 52 4 5.2 7.0 0.00 1.25 0.00 92 1016.3
20260503081010 53 349 4.3 7.0 0.00 1.26 0.00 92 1016.2
20260503080442 53 351 5.2 7.8 0.00 1.26 0.00 92 1016.3
20260503072943 53 13 5.2 7.8 0.00 1.30 0.00 92 1015.8
20260503072445 53 5 5.2 8.7 0.00 1.30 0.00 92 1015.7
20260503071943 53 356 4.3 8.7 0.00 1.30 0.00 92 1015.8
20260503071442 53 347 6.1 8.7 0.00 1.30 0.00 92 1015.8
20260503070942 53 23 5.2 10.4 0.00 1.31 0.00 93 1015.8
20260503070441 53 349 7.0 10.4 0.00 1.31 0.00 93 1015.7
20260503054942 53 4 7.8 10.4 0.00 1.34 0.00 93 1015.4
20260503054442 53 333 6.1 10.4 0.00 1.34 0.00 94 1015.4
20260503053941 53 333 7.8 11.3 0.00 1.34 0.00 94 1015.5
20260503053441 53 327 7.0 11.3 0.00 1.34 0.00 94 1015.5
20260503052943 53 7 8.7 11.3 0.00 1.34 0.00 93 1015.4
20260503052442 53 9 6.1 13.9 0.00 1.34 0.00 94 1015.4
20260503051942 53 18 8.7 13.9 0.00 1.34 0.00 93 1015.3
20260503051442 54 1 7.8 13.0 0.00 1.34 0.00 93 1015.4
20260503050942 54 33 8.7 13.9 0.00 1.34 0.00 93 1015.4
20260503050443 54 18 7.8 13.9 0.00 1.34 0.00 93 1015.4
20260503045943 54 333 8.7 12.2 0.00 1.34 0.00 93 1015.4
20260503045445 54 352 7.8 12.2 0.00 1.34 0.00 93 1015.3
20260503044945 54 13 8.7 12.2 0.00 1.34 0.00 93 1015.1
20260503044443 54 359 7.8 12.2 0.00 1.34 0.00 92 1015.0
20260503043942 54 347 8.7 13.0 0.00 1.34 0.00 92 1014.9
20260503043443 54 21 7.0 13.9 0.00 1.34 0.00 93 1015.1
20260503042944 54 24 9.6 14.8 0.00 1.34 0.00 92 1015.1
20260503042442 54 13 9.6 14.8 0.00 1.34 0.00 92 1015.1
20260503041941 55 8 11.3 15.6 0.00 1.34 0.00 92 1015.0
20260503041443 55 7 7.8 15.6 0.00 1.34 0.00 93 1014.9
20260503040942 55 8 9.6 15.6 0.00 1.34 0.00 92 1014.8
20260503040441 55 17 7.8 12.2 0.00 1.34 0.00 93 1014.8
20260503035942 55 27 7.8 12.2 0.00 1.34 0.00 93 1014.6
20260503035443 55 20 8.7 12.2 0.00 1.34 1.34 92 1014.7
20260503034944 56 12 9.6 13.9 0.00 1.34 1.34 92 1014.6
20260503034443 56 331 9.6 13.9 0.00 1.34 1.34 92 1014.6
20260503033944 56 337 10.4 13.9 0.00 1.34 1.34 92 1014.4
20260503033443 56 326 7.8 11.3 0.00 1.34 1.34 93 1014.2
20260503032945 56 323 7.0 12.2 0.00 1.34 1.34 93 1014.2
20260503032446 56 328 7.8 12.2 0.00 1.34 1.34 94 1014.1
20260503031943 56 4 8.7 11.3 0.00 1.34 1.34 93 1014.1
20260503031446 56 337 7.8 10.4 0.00 1.34 1.34 93 1014.0
20260503030941 56 347 7.8 10.4 0.00 1.34 1.34 93 1013.9
20260503030444 56 331 7.8 11.3 0.00 1.34 1.34 94 1013.9
20260503025942 56 328 7.0 11.3 0.00 1.34 1.34 93 1013.9
20260503025441 56 340 7.0 10.4 0.00 1.35 1.34 93 1013.9
20260503024942 56 335 7.0 11.3 0.00 1.35 1.34 93 1013.9
20260503024443 56 347 6.1 12.2 0.00 1.35 1.34 94 1013.8
20260503023943 56 19 8.7 12.2 0.00 1.35 1.34 93 1013.8
20260503023442 56 338 7.8 12.2 0.00 1.35 1.34 93 1013.7
20260503022944 56 14 7.8 12.2 0.00 1.35 1.34 93 1013.5
20260503022444 56 335 8.7 12.2 0.00 1.35 1.34 93 1013.3
20260503021943 56 346 7.0 10.4 0.00 1.35 1.34 93 1013.3
20260503021444 56 340 7.0 11.3 0.00 1.35 1.34 94 1013.2
20260503020945 56 340 7.8 11.3 0.00 1.35 1.34 94 1013.1
20260503020444 56 342 7.8 11.3 0.00 1.35 1.34 94 1013.1
20260503015945 56 26 8.7 11.3 0.00 1.35 1.34 94 1013.0
20260503015444 56 26 7.8 12.2 0.00 1.35 1.34 94 1012.9
20260503014944 56 20 9.6 12.2 0.00 1.35 1.34 94 1012.7
20260503014442 56 27 7.8 13.0 0.00 1.35 1.34 94 1012.7
20260503013941 56 8 7.8 13.0 0.00 1.35 1.34 95 1012.5
20260503013442 56 4 9.6 13.0 0.00 1.35 1.34 94 1012.6
20260503012946 56 347 8.7 12.2 0.00 1.35 1.34 94 1012.7
20260503012443 56 336 7.8 12.2 0.00 1.35 1.34 94 1012.7
20260503011942 56 341 7.8 13.9 0.00 1.35 1.34 94 1012.8
20260503011444 56 349 8.7 13.9 0.00 1.35 1.34 94 1012.9
20260503010943 56 1 7.8 12.2 0.00 1.35 1.34 94 1012.7
20260503010445 56 32 6.1 13.0 0.00 1.35 1.34 95 1012.5
20260503005944 56 17 8.7 13.0 0.00 1.35 1.34 95 1012.7
20260503005444 56 9 8.7 13.0 0.00 1.35 1.34 94 1012.5
20260503004944 56 34 9.6 13.0 0.00 1.35 1.34 95 1012.5
20260503004447 56 4 8.7 12.2 0.00 1.35 1.34 95 1012.3
20260503003943 56 32 8.7 12.2 0.00 1.35 1.34 95 1012.1
20260503003444 56 11 8.7 13.9 0.00 1.36 1.34 95 1011.8
20260503002942 56 18 8.7 13.9 0.00 1.36 1.34 95 1011.8
20260503002442 56 4 8.7 13.9 0.00 1.36 1.34 96 1011.8
20260503001942 56 32 7.8 13.9 0.00 1.36 1.34 97 1011.6
20260503001443 56 339 10.4 13.9 0.00 1.36 1.34 96 1011.8
20260503000942 56 330 8.7 12.2 0.00 1.36 1.34 96 1011.8
20260503000442 56 349 7.0 11.3 0.00 1.36 1.34 97 1011.6
20260502235945 56 336 6.1 10.4 0.00 1.36 1.34 97 1011.7
20260502235443 56 15 7.0 13.9 0.00 1.36 1.34 97 1011.6
20260502234943 56 351 8.7 13.9 0.00 1.37 1.34 97 1011.7
20260502234446 56 13 10.4 13.9 0.00 1.37 1.34 97 1011.5
20260502233944 56 358 10.4 13.0 0.00 1.37 1.34 97 1011.4
20260502233444 56 349 8.7 12.2 0.00 1.37 1.34 97 1011.4
20260502232944 56 37 6.1 13.0 0.00 1.37 1.34 97 1011.1
20260502232443 56 320 8.7 13.9 0.00 1.37 1.34 97 1011.2
20260502231944 56 29 11.3 13.9 0.00 1.37 1.34 97 1011.0
20260502231445 56 13 9.6 14.8 0.00 1.37 1.34 97 1010.8
20260502230945 56 13 10.4 15.6 0.00 1.38 1.34 97 1010.9
20260502230443 56 18 9.6 15.6 0.00 1.38 1.34 97 1010.9
20260502225944 56 31 12.2 15.6 0.00 1.39 1.34 97 1010.9
20260502225442 56 18 9.6 15.6 0.00 1.39 1.34 97 1010.8
20260502224945 56 27 9.6 13.0 0.00 1.39 1.34 97 1010.7
20260502224444 56 34 9.6 16.5 0.00 1.40 1.34 97 1010.9
20260502223943 56 30 10.4 16.5 0.00 1.41 1.34 97 1011.0
20260502223443 56 35 11.3 16.5 0.00 1.41 1.34 97 1010.9
20260502222945 56 27 8.7 15.6 0.00 1.41 1.34 97 1010.9
20260502222443 56 16 11.3 15.6 0.00 1.41 1.34 97 1010.8
20260502221944 56 13 9.6 17.4 0.00 1.41 1.34 97 1010.7
20260502221444 56 20 11.3 17.4 0.00 1.41 1.34 97 1010.7
20260502220946 56 4 8.7 13.0 0.00 1.41 1.34 97 1010.6
20260502220446 56 25 8.7 13.9 0.00 1.41 1.34 97 1010.6
20260502215947 56 18 8.7 13.9 0.00 1.41 1.34 97 1010.5
20260502215445 56 27 7.8 13.0 0.00 1.42 1.34 97 1010.3